Погода в Мордыше

Россия / Владимирская область     56°18′38″N   40°36′44″E
темп.,
°C
ветер,
м/с
пор.,
м/с
влажн.,
%
обл.,
%
осадки,
мм/ч
давл.,
гПа
погр.,
м
11 мая, вт
вт1100:00+5св36890 0.0 1027100
03:00+5ссв310930 0.0 1028196
06:00+7св412850 0.0 1028392
09:00+12св69600 0.0 1028580
12:00+16св57550 0.0 1027796
15:00+19всв56570 0.0 1026941
18:00+18всв47690 0.0 1026418
21:00+13всв349110 0.0 102762
12 мая, ср
ср1200:00+11в229566 0.1 102717
03:00+11ююв11956 0.1 102711
06:00+12ссв23935 0.0 102791
09:00+18св587490 0.0 1026518
12:00+19в61074100 2.1 1024739
15:00+21вюв7126799 3.3 10231861
18:00+17юв7137093 0.1 10221001
21:00+14вюв51187100 0.1 1022619
13 мая, чт
чт1300:00+14вюв499186 0.0 1023623
03:00+13вюв3693100 0.0 1023303
06:00+13в379418 0.0 1022252
09:00+17вюв587853 0.0 1021683
12:00+20вюв696578 0.1 10191317
15:00+16вюв7138393 1.6 1017972
18:00+15юв4109697 2.8 1016619
21:00+13ю369842 3.3 1017158
14 мая, пт
пт1400:00+12ююв229898 0.0 101728
03:00+11ю24977 0.0 101873
06:00+12ю249550 0.0 1019153
09:00+17ю3683100 0.0 1019562
12:00+20ю4673100 0.6 1018823
15:00+23ююв4753100 0.8 10171817
18:00+20юв497597 0.8 1016282
21:00+15ююз2294100 4.2 101522
15 мая, сб
сб1500:00+15вюв4897100 4.9 1014194
03:00+15ююв1396100 6.1 101461
06:00+16юв31195100 0.2 1013323
09:00+19ююв468586 0.5 1012343
12:00+23ююв5867100 0.3 1011859
15:00+23ююз4767100 1.1 1010959
18:00+15ю389044 26.1 1011286
21:00+13ююв3119642 26.1 1011274